Weather History for Los Angeles, CA

Change the Weather History Date:

Wednesday, February 13, 2013

  Actual Average Record
Temperature  
Mean Temperature 55 °F 57 °F  
Max Temperature 64 °F 64 °F 85 °F (1985)
Min Temperature 45 °F 50 °F 35 °F (1948)
Degree Days  
Heating Degree Days 10 8  
Month to date heating degree days 128 104  
Since 1 July heating degree days 750 808  
Cooling Degree Days 0 0  
Month to date cooling degree days 0 0  
Year to date cooling degree days 6 4  
Growing Degree Days 4 (Base 50)    
Moisture  
Dew Point 42 °F    
Average Humidity 59    
Maximum Humidity 83    
Minimum Humidity 34    
Precipitation  
Precipitation 0.00 in 0.12 in 3.28 in (1954)
Month to date precipitation 0.07 1.45  
Year to date precipitation 1.37 4.16  
Since 1 July precipitation 5.65 8.17  
Sea Level Pressure  
Sea Level Pressure 30.21 in    
Wind  
Wind Speed 6 mph (West)    
Max Wind Speed 13 mph    
Max Gust Speed 16 mph    
Visibility 10 miles    
Events      
T = Trace of Precipitation, MM = Missing Value Source: NWS Daily Summary

Daily Weather History Graph

Daily Weather History Graph

Search for Another Location

Airport:

Trip Planner

Search our weather history database for the weather conditions in past years. The results will help you decide how hot, cold, wet, or windy it might be!

Date:

Astronomy

Feb. 13, 2013 Rise Set
Actual Time 6:39 AM PST 5:36 PM PST
Civil Twilight 6:14 AM PST 6:01 PM PST
Nautical Twilight 5:44 AM PST 6:31 PM PST
Astronomical Twilight 5:15 AM PST 7:00 PM PST
Moon 8:24 AM PST (2/13) 9:29 PM PST (2/13)
Length of Visible Light 11h 47m
Length of Day
10h 56m
Waxing Crescent, 14% of the Moon is Illuminated
Feb 13
Waxing Crescent
Feb 17
First Quarter
Feb 25
Full
Mar 4
Last Quarter
Mar 11
New

Hourly Weather History & Observations

Time (PST) Temp. Windchill Dew Point Humidity Pressure Visibility Wind Dir Wind Speed Gust Speed Precip Events Conditions
12:53 AM 48.9 °F - 41.0 °F 74% 30.25 in 10.0 mi NE 5.8 mph - N/A   Clear
1:53 AM 48.0 °F - 39.0 °F 71% 30.25 in 10.0 mi East 3.5 mph - N/A   Clear
2:53 AM 46.9 °F - 37.9 °F 71% 30.24 in 10.0 mi Calm Calm - N/A   Clear
3:53 AM 46.0 °F 43.9 °F 37.0 °F 71% 30.23 in 10.0 mi East 4.6 mph - N/A   Clear
4:53 AM 46.0 °F 43.9 °F 35.1 °F 66% 30.23 in 10.0 mi NE 4.6 mph - N/A   Clear
5:53 AM 45.0 °F 43.5 °F 34.0 °F 65% 30.24 in 10.0 mi SE 3.5 mph - N/A   Clear
6:53 AM 46.9 °F - 33.1 °F 59% 30.25 in 10.0 mi East 3.5 mph - N/A   Clear
7:53 AM 48.9 °F - 34.0 °F 56% 30.26 in 10.0 mi ENE 6.9 mph - N/A   Clear
8:53 AM 53.1 °F - 35.1 °F 50% 30.27 in 10.0 mi ESE 6.9 mph - N/A   Clear
9:53 AM 57.9 °F - 35.1 °F 42% 30.26 in 10.0 mi East 3.5 mph - N/A   Clear
10:53 AM 62.1 °F - 33.1 °F 34% 30.26 in 10.0 mi Calm Calm - N/A   Clear
11:53 AM 61.0 °F - 42.1 °F 50% 30.23 in 10.0 mi West 6.9 mph - N/A   Clear
12:53 PM 60.1 °F - 45.0 °F 57% 30.20 in 10.0 mi West 6.9 mph - N/A   Clear
1:53 PM 61.0 °F - 45.0 °F 56% 30.18 in 10.0 mi West 12.7 mph - N/A   Clear
2:53 PM 60.1 °F - 41.0 °F 49% 30.17 in 10.0 mi West 11.5 mph - N/A   Partly Cloudy
3:53 PM 59.0 °F - 46.0 °F 62% 30.16 in 10.0 mi West 11.5 mph - N/A   Clear
4:53 PM 57.0 °F - 45.0 °F 64% 30.16 in 10.0 mi West 10.4 mph - N/A   Clear
5:53 PM 55.0 °F - 46.9 °F 74% 30.16 in 10.0 mi West 8.1 mph - N/A   Clear
6:53 PM 55.0 °F - 48.9 °F 80% 30.16 in 10.0 mi West 6.9 mph - N/A   Clear
7:53 PM 54.0 °F - 48.0 °F 80% 30.16 in 10.0 mi West 4.6 mph - N/A   Clear
8:53 PM 54.0 °F - 48.9 °F 83% 30.17 in 10.0 mi West 6.9 mph - N/A   Clear
9:53 PM 54.0 °F - 48.9 °F 83% 30.17 in 10.0 mi West 4.6 mph - N/A   Clear
10:53 PM 54.0 °F - 48.9 °F 83% 30.17 in 10.0 mi Calm Calm - N/A   Clear
11:53 PM 53.1 °F - 48.9 °F 86% 30.17 in 10.0 mi Calm Calm - N/A   Partly Cloudy